Stations météo

réclame
Mon MeteoGroup
Culdrose, Grande-Bretagne (3809): Température de l'air & dewpoint: 12.02.2019 17:00:00 - 18.02.2019 17:00:00 (GMT)Culdrose, Grande-Bretagne (3809): Vitesse du vent & gusts: 12.02.2019 17:00:00 - 18.02.2019 17:00:00 (GMT)Culdrose, Grande-Bretagne (3809): Direction du vent: 12.02.2019 17:00:00 - 18.02.2019 17:00:00 (GMT)Culdrose, Grande-Bretagne (3809): reduced air pressure: 12.02.2019 17:00:00 - 18.02.2019 17:00:00 (GMT)Culdrose, Grande-Bretagne (3809): visibility: 12.02.2019 17:00:00 - 18.02.2019 17:00:00 (GMT)Culdrose, Grande-Bretagne (3809): Quantités de précipitations: 12.02.2019 17:00:00 - 18.02.2019 17:00:00 (GMT)
Date & Time tt [°C] td [°C] ff [km/h] ff [knt] fx [km/h] fx [knt] dd ppp [hPa] vv [km] rr [mm]
18.02.2019 17:00:00 8,9 3,5 26 14 - - W 1016,3 24 -
18.02.2019 16:00:00 9,7 4,6 18 10 - - W 1016,0 24 0,0
18.02.2019 15:00:00 10,0 3,6 16 9 - - W 1015,7 25 0,0
18.02.2019 14:00:00 10,1 3,5 22 12 - - W 1015,5 29 0,0
18.02.2019 13:00:00 10,2 5,1 24 13 - - W 1015,7 24 0,0
18.02.2019 12:00:00 10,2 5,9 21 11 - - W 1015,5 21 0,0
18.02.2019 11:00:00 9,5 7,4 15 8 - - W 1015,2 10 0,0
18.02.2019 10:00:00 8,0 6,1 11 6 - - W 1014,9 14 0,0
18.02.2019 09:00:00 7,4 6,0 9 5 46 25 W 1014,4 35 1,0
18.02.2019 08:00:00 8,3 6,5 21 11 48 26 SW 1014,0 10 0,4
18.02.2019 07:00:00 9,4 7,3 28 15 - - SW 1013,5 17 0,0
18.02.2019 06:00:00 9,3 7,4 26 14 - - SSW 1013,3 16 0,0
18.02.2019 05:00:00 9,3 7,6 28 15 - - SSW 1013,1 15 0,0
18.02.2019 04:00:00 9,3 7,8 24 13 - - SSW 1013,3 14 0,0
18.02.2019 03:00:00 9,4 7,7 28 15 - - SSW 1013,7 14 0,0
18.02.2019 02:00:00 9,5 8,2 26 14 - - SSW 1014,1 14 0,0
18.02.2019 01:00:00 9,7 8,1 26 14 - - SSW 1014,0 15 0,0
18.02.2019 00:00:00 9,6 8,1 29 16 - - SSW 1013,9 15 0,0
17.02.2019 23:00:00 9,7 7,9 29 16 - - SSW 1013,9 15 0,0
17.02.2019 22:00:00 9,7 8,0 34 18 46 25 SSW 1013,8 14 0,0
17.02.2019 21:00:00 9,8 7,7 37 20 48 26 SSW 1013,6 15 0,0
17.02.2019 20:00:00 10,0 7,5 34 18 50 27 SSW 1013,2 15 0,0
17.02.2019 19:00:00 10,1 7,4 37 20 54 29 SSW 1013,1 16 0,0
17.02.2019 18:00:00 10,1 7,5 29 16 48 26 S 1012,7 15 0,0
17.02.2019 17:00:00 10,3 7,8 29 16 48 26 SSW 1012,3 15 0,0
17.02.2019 16:00:00 10,6 7,9 29 16 48 26 SSW 1012,4 10 0,0
17.02.2019 15:00:00 10,8 8,2 28 15 48 26 SSW 1012,6 15 0,0
17.02.2019 14:00:00 11,3 8,7 31 17 50 27 SSW 1012,5 13 0,0
17.02.2019 13:00:00 11,5 8,3 34 18 46 25 SSW 1012,5 16 0,0
17.02.2019 12:00:00 11,1 9,2 35 19 48 26 SSW 1012,5 13 0,0
17.02.2019 11:00:00 10,6 9,0 34 18 48 26 SSW 1012,1 10 -
17.02.2019 10:00:00 10,5 9,2 31 17 - - SSW 1011,6 10 0,0
17.02.2019 09:00:00 10,3 8,8 31 17 57 31 SSW 1011,2 10 0,0
17.02.2019 08:00:00 10,7 10,0 44 24 63 34 SSW 1010,6 12 0,0
17.02.2019 07:00:00 10,5 9,7 35 19 50 27 S 1010,0 8 0,0
17.02.2019 06:00:00 10,4 9,4 35 19 54 29 S 1010,3 9 0,0
17.02.2019 05:00:00 10,2 8,9 31 17 46 25 S 1010,2 13 0,0
17.02.2019 04:00:00 9,8 8,5 31 17 48 26 S 1010,8 14 0,0
17.02.2019 03:00:00 9,5 8,0 29 16 52 28 S 1012,0 14 0,0
17.02.2019 02:00:00 9,6 7,8 28 15 - - S 1012,8 16 0,0
17.02.2019 01:00:00 9,5 7,5 26 14 - - SSE 1013,5 15 0,0
17.02.2019 00:00:00 9,3 7,3 28 15 - - SSE 1014,1 17 0,0
16.02.2019 23:00:00 9,4 8,4 28 15 - - SE 1015,2 14 0,0
16.02.2019 22:00:00 9,9 9,2 31 17 - - SE 1016,2 13 0,0
16.02.2019 21:00:00 10,0 9,4 31 17 54 29 SE 1016,9 12 0,0
16.02.2019 20:00:00 10,2 9,4 31 17 48 26 SSE 1017,6 12 0,0
16.02.2019 19:00:00 10,6 9,6 24 13 - - S 1018,3 10 0,0
16.02.2019 18:00:00 10,6 9,5 26 14 - - S 1018,4 15 0,0
16.02.2019 17:00:00 10,6 9,5 28 15 - - S 1018,6 14 0,0
16.02.2019 16:00:00 10,8 9,9 24 13 - - S 1018,8 14 0,0
16.02.2019 15:00:00 10,9 10,4 28 15 - - S 1019,5 12 0,0
16.02.2019 14:00:00 10,7 10,6 31 17 46 25 S 1020,1 5 0,2
16.02.2019 13:00:00 11,0 10,7 29 16 - - S 1020,8 3,0 0,0
16.02.2019 12:00:00 11,0 10,7 29 16 - - S 1021,3 3,2 0,0
16.02.2019 11:00:00 11,0 10,8 31 17 - - S 1021,5 4,9 0,0
16.02.2019 10:00:00 11,0 10,7 28 15 - - S 1021,3 4,7 0,0
16.02.2019 09:00:00 10,7 10,3 26 14 - - S 1021,3 5 0,0
16.02.2019 08:00:00 10,2 9,9 22 12 - - S 1021,3 9 0,0
16.02.2019 07:00:00 9,9 9,7 21 11 - - SSW 1021,3 11 0,0
16.02.2019 06:00:00 9,0 8,8 16 9 - - SW 1021,4 3,2 0,0
16.02.2019 05:00:00 9,7 9,6 21 11 - - SW 1021,5 7 0,0
16.02.2019 04:00:00 10,1 10,0 24 13 - - SSW 1021,5 3,9 0,0
16.02.2019 03:00:00 10,4 10,2 26 14 - - SSW 1021,9 0,9 0,0
16.02.2019 02:00:00 10,4 10,2 26 14 - - SSW 1022,0 2,1 0,0
16.02.2019 01:00:00 10,5 10,3 28 15 - - SSW 1022,2 1,3 0,0
16.02.2019 00:00:00 10,6 10,3 28 15 - - SSW 1022,4 1,4 0,0
15.02.2019 23:00:00 10,9 10,4 28 15 - - SSW 1022,6 4,2 0,0
15.02.2019 22:00:00 10,7 10,0 28 15 - - S 1022,7 8 0,0
15.02.2019 21:00:00 10,8 9,8 31 17 46 25 S 1022,5 10 0,0
15.02.2019 20:00:00 11,0 9,8 29 16 - - S 1022,3 13 0,0
15.02.2019 19:00:00 10,3 9,3 31 17 - - S 1022,7 10 0,0
15.02.2019 18:00:00 10,2 9,2 29 16 - - S 1022,4 9 0,0
15.02.2019 17:00:00 10,6 9,1 29 16 - - S 1022,1 10 0,0
15.02.2019 16:00:00 11,4 9,3 26 14 - - S 1022,0 10 0,0
15.02.2019 15:00:00 12,8 9,2 22 12 - - S 1022,4 10 0,0
15.02.2019 14:00:00 11,9 9,5 24 13 - - S 1023,1 10 0,0
15.02.2019 13:00:00 12,5 9,3 22 12 - - SSE 1023,6 17 0,0
15.02.2019 12:00:00 12,0 9,2 13 7 - - SSE 1024,7 10 0,0
15.02.2019 11:00:00 11,7 9,4 11 6 - - SSE 1024,9 10 0,0
15.02.2019 10:00:00 10,6 8,9 11 6 - - ESE 1025,1 10 0,0
15.02.2019 09:00:00 9,4 8,5 11 6 - - SE 1025,2 10 0,0
15.02.2019 08:00:00 4,9 4,1 11 6 - - SE 1025,2 10 0,0
15.02.2019 07:00:00 7,7 7,1 16 9 - - SE 1024,7 4,0 0,0
15.02.2019 06:00:00 7,4 6,6 13 7 - - SE 1024,7 4,0 0,0
15.02.2019 05:00:00 8,3 7,3 13 7 - - SSE 1024,8 10 0,0
15.02.2019 04:00:00 7,5 6,8 11 6 - - SSE 1024,9 10 0,0
15.02.2019 03:00:00 7,3 6,4 13 7 - - SSE 1025,3 10 0,0
15.02.2019 02:00:00 7,7 7,1 16 9 - - SE 1025,5 10 0,0
15.02.2019 01:00:00 5,0 4,6 13 7 - - SE 1026,1 3,0 0,0
15.02.2019 00:00:00 4,9 4,6 16 9 - - E 1026,3 3,0 0,0
14.02.2019 23:00:00 4,6 4,2 16 9 - - E 1026,2 4,0 0,0
14.02.2019 22:00:00 4,7 4,2 18 10 - - E 1026,5 4,0 0,0
14.02.2019 21:00:00 4,9 4,4 18 10 - - E 1026,6 3,0 0,0
14.02.2019 20:00:00 4,4 3,7 21 11 - - ESE 1026,9 10 0,0
14.02.2019 19:00:00 4,8 3,7 15 8 - - E 1027,2 14 0,0
14.02.2019 18:00:00 6,7 5,1 21 11 - - E 1027,0 10 0,0
14.02.2019 17:00:00 8,2 5,7 24 13 - - E 1027,0 10 0,0
14.02.2019 16:00:00 9,2 5,7 24 13 - - ESE 1027,2 10 0,0
14.02.2019 15:00:00 10,1 6,0 21 11 - - ESE 1027,6 10 0,0
14.02.2019 14:00:00 10,5 5,7 18 10 - - ESE 1028,1 10 0,0
14.02.2019 13:00:00 10,3 5,7 24 13 - - ESE 1028,6 10 0,0
14.02.2019 12:00:00 10,2 6,6 22 12 - - ESE 1029,3 10 0,0
14.02.2019 11:00:00 9,8 6,7 22 12 - - SE 1029,5 10 0,0
14.02.2019 10:00:00 9,1 7,3 16 9 - - SE 1029,7 10 0,0
14.02.2019 09:00:00 5,3 5,2 13 7 - - ESE 1029,9 9 0,0
14.02.2019 08:00:00 4,0 3,8 13 7 - - SE 1029,7 8 0,0
14.02.2019 07:00:00 2,9 2,6 11 6 - - ESE 1029,3 8 0,0
14.02.2019 06:00:00 2,2 1,6 9 5 - - E 1029,4 18 0,0
14.02.2019 05:00:00 4,3 3,6 11 6 - - SE 1029,2 18 0,0
14.02.2019 04:00:00 6,2 5,1 11 6 - - SE 1029,5 18 0,0
14.02.2019 03:00:00 6,5 5,3 11 6 - - SSE 1029,8 10 0,0
14.02.2019 02:00:00 6,3 4,9 15 8 - - SSE 1029,9 18 0,0
14.02.2019 01:00:00 6,5 5,5 13 7 - - SSE 1030,2 16 0,0
14.02.2019 00:00:00 7,0 6,5 11 6 - - SSE 1030,4 16 0,0
13.02.2019 23:00:00 6,9 6,2 13 7 - - SSE 1030,4 12 0,0
13.02.2019 22:00:00 6,8 5,8 11 6 - - SSE 1030,6 14 0,0
13.02.2019 21:00:00 6,8 5,6 11 6 - - SSE 1030,3 10 0,0
13.02.2019 20:00:00 7,6 6,5 13 7 - - S 1030,2 16 0,0
13.02.2019 19:00:00 8,0 7,0 13 7 - - SSE 1030,2 10 0,0
13.02.2019 18:00:00 8,5 7,1 13 7 - - S 1030,0 10 0,0
13.02.2019 17:00:00 9,8 7,9 16 9 - - S 1030,0 10 0,0
13.02.2019 16:00:00 10,1 8,0 18 10 - - S 1030,0 10 0,0
13.02.2019 15:00:00 10,3 7,8 18 10 - - S 1030,3 10 0,0
13.02.2019 14:00:00 10,6 8,0 24 13 - - S 1030,6 10 0,0
13.02.2019 13:00:00 10,2 7,1 22 12 - - S 1030,7 10 0,0
13.02.2019 12:00:00 10,1 6,9 21 11 - - S 1031,2 10 0,0
13.02.2019 11:00:00 9,5 6,3 21 11 - - S 1031,4 10 0,0
13.02.2019 10:00:00 9,4 7,2 16 9 - - S 1031,0 10 0,0
13.02.2019 09:00:00 9,3 6,3 22 12 - - S 1030,8 10 0,0
13.02.2019 08:00:00 9,2 6,0 18 10 - - S 1031,0 10 0,0
13.02.2019 07:00:00 9,0 6,2 18 10 - - S 1031,0 10 0,0
13.02.2019 06:00:00 8,8 6,1 13 7 - - S 1031,2 25 0,0
13.02.2019 05:00:00 8,7 6,1 13 7 - - S 1031,3 20 0,0
13.02.2019 04:00:00 8,4 6,2 11 6 - - S 1031,4 20 0,0
13.02.2019 03:00:00 8,3 6,7 11 6 - - S 1031,8 10 0,0
13.02.2019 02:00:00 8,5 6,8 13 7 - - S 1032,4 20 0,0
13.02.2019 01:00:00 9,4 5,7 18 10 - - S 1032,5 10 0,0
13.02.2019 00:00:00 9,3 6,9 11 6 - - S 1032,5 20 0,0
12.02.2019 23:00:00 9,5 5,9 16 9 - - S 1032,8 10 0,0
12.02.2019 22:00:00 9,4 5,8 11 6 - - S 1033,1 20 0,0
12.02.2019 21:00:00 9,5 6,2 13 7 - - S 1033,0 20 0,0
12.02.2019 20:00:00 9,7 5,3 15 8 - - SSW 1033,2 20 0,0
12.02.2019 19:00:00 9,7 7,6 16 9 - - S 1033,2 20 0,0
12.02.2019 18:00:00 9,9 7,7 18 10 - - SSW 1032,9 10 0,0
12.02.2019 17:00:00 10,0 7,9 16 9 - - SSW 1032,8 10 0,0

tt = Température de l'air
td = dewpoint
ff = Vitesse du vent
fx = gusts
dd = Direction du vent
ppp = reduced air pressure
vv = visibility
rr = Quantités de précipitations

stations d'obs. à proximité